Starlink 5986

operational
NORAD ID: 56452 Int'l Des: 2023-064 Owner: SPXS Country: US Constellation: starlink
LEOCIRCULAR

About Starlink 5986

Description loading...

Live Position

Loading 3D Globe...

Upcoming Passes

Altitude History

Altitude vs Time

uPlot chart will show altitude changes over time

Two-Line Element Set

1 56452U 23064E 26034.98384247 -.00000295 00000-0 -16900-4 0 9995
2 56452 69.9984 229.5847 0002544 270.7195 89.3672 14.98330642150193
Epoch: Feb 3, 2026 • Age: 25 hours

Current Status

Altitude 574.2 km
Velocity 7.57 km/s
Sub-Earth Point 13.75°N, 98.99°W
Launch Date May 10, 2023
Age 2.7 years
Type internet

Technical Details

Classification Payload
Mass 305.00 kg
Dry Mass 290.00 kg
Total Mass 305.00 kg
Length 0.20 m
Diameter 2.80 m
Span 9.00 m
Shape Box + pan
Manufacturer SPXS
Bus Type Starlink
Phase Status In Orbit
Owner/State SPXS/US

Large Constellations

Loading constellations...